[[{"header":{"parameterUnit":"m.s-1","parameterCategory":1,"la1":30.2991,"la2":30.254,"lo1":-89.0895,"lo2":-89.0444,"dy":0.0017,"dx":0.0017,"nx":28,"ny":28,"refTime":"2026-02-14T09:00:00:Z","depth":0,"parameterNumber":2,"parameterNumberName":"U-component_of_WINDS"},"data":[0,0,0,0,0,0,0,0,0,0,0,0,0,0,0,0,0,0,0,0,0,0,0,0,0,0,0,0,0,0,0,0,0,0,0,0,0,0,0,0,0,0,0,0,0,0,0,0,0,0,0,0,0,0,0,0,0,0,-3.7783,-3.7784,0,-3.7916,-3.7918,-3.792,-3.7842,-3.7838,-3.7835,-3.7831,-3.7972,-3.7979,-3.7986,0,0,0,0,0,0,0,0,0,0,0,0,0,-3.7466,-3.7472,-3.7783,-3.7784,-3.7786,-3.7916,-3.7918,-3.792,-3.7843,-3.7838,-3.7834,-3.7829,-3.7969,-3.7978,-3.7987,0,0,0,0,0,0,0,0,0,0,0,0,0,-3.7602,-3.7474,-3.7782,-3.7763,-3.7763,-3.7916,-3.7918,-3.792,-3.7844,-3.7838,-3.7832,-3.7827,-3.7967,-3.7977,-3.7988,-3.8168,0,0,-3.8021,-3.8026,0,0,0,0,0,0,0,0,-3.7594,-3.7614,-3.7764,-3.7765,-3.7765,-3.7857,-3.7858,-3.8004,-3.7845,-3.7813,-3.7831,-3.7824,-3.7938,-3.7951,-3.7989,-3.8175,-3.8181,-3.8022,-3.8029,-3.8033,-3.8036,0,0,0,0,0,0,0,-3.7585,-3.7607,-3.7836,-3.7767,-3.7767,-3.775,-3.7763,-3.7885,-3.7906,-3.7816,-3.781,-3.7827,-3.7937,-3.7979,-3.7992,-3.8183,-3.8022,-3.8031,-3.8038,-3.8042,-3.8527,-3.8533,0,0,0,0,0,0,-3.7576,-3.76,-3.7831,-3.784,-3.7664,-3.776,-3.7774,-3.7833,-3.7904,-3.791,-3.7832,-3.7823,-3.7963,-3.7979,-3.7996,-3.8214,-3.8033,-3.8044,-3.805,-3.8521,-3.8528,-3.8535,0,0,0,0,0,0,-3.757,-3.7598,-3.7826,-3.7719,-3.7746,-3.7771,-3.7838,-3.7839,-3.7879,-3.7917,-3.792,-3.787,-3.7959,-3.7981,-3.8127,-3.8217,-3.8048,-3.8058,-3.8513,-3.8523,-3.8532,-3.8649,0,0,0,0,0,0,-3.7561,-3.7596,-3.7663,-3.7721,-3.7752,-3.7953,-3.7843,-3.7845,-3.7898,-3.7888,-3.7953,-3.7958,-3.7956,-3.8111,-3.8137,-3.8229,-3.8067,-3.8505,-3.8518,-3.8529,-3.8637,-3.8661,-3.8682,0,0,0,0,0,-3.755,-3.7691,-3.7667,-3.7695,-3.7837,-3.7958,-3.7976,-3.797,-3.7906,-3.7975,-3.7999,-3.7956,-3.8203,-3.8126,-3.8156,-3.8252,-3.85,-3.8514,-3.8528,-3.8627,-3.8657,-3.8682,0,0,0,0,0,0,-3.7644,-3.7698,-3.7672,-3.7836,-3.7893,-3.7945,-3.8031,-3.8001,-3.8078,-3.8065,-3.8055,-3.8071,-3.8223,-3.8252,-3.8165,-3.8432,-3.8342,-3.8363,-3.8407,-3.8435,-3.8457,-3.8447,-3.8076,0,0,0,0,0,-3.7684,-3.7776,-3.7819,-3.796,-3.799,-3.8006,-3.8058,-3.8049,-3.8108,-3.8132,-3.8166,-3.8227,-3.8318,-3.8378,-3.8464,-3.8642,-3.8656,-3.8723,-3.8745,-3.8763,-3.8782,-3.8879,-3.891,-3.8582,-3.8582,-3.8582,0,0,-3.7767,-3.7808,-3.7867,-3.798,-3.8023,-3.812,-3.8027,-3.8133,-3.8206,-3.8148,-3.8288,-3.8316,-3.8383,-3.8546,-3.8619,-3.8575,-3.8876,-3.8782,-3.8796,-3.8804,-3.8897,-3.8928,-3.8956,-3.8592,-3.859,-3.8589,0,0,-3.7968,-3.8008,-3.813,-3.8176,-3.8242,-3.8252,-3.8282,-3.834,-3.8356,-3.8496,-3.8455,-3.8542,-3.8699,-3.8749,-3.8795,-3.9019,-3.8983,-3.9048,-3.9165,-3.926,-3.9286,-3.9309,-3.939,-3.9419,-3.9066,-3.9066,-3.9066,0,-3.8063,-3.8207,-3.8197,-3.8308,-3.8359,-3.8311,-3.8436,-3.8481,-3.8573,-3.8611,-3.856,-3.8757,-3.8799,-3.8973,-3.9028,-3.9067,-3.9102,-3.9039,-3.9283,-3.9306,-3.9327,-3.9404,-3.9435,-3.9073,-3.9072,-3.9072,-3.9071,0,-3.8322,-3.8423,-3.8514,-3.8603,-3.8665,-3.8782,-3.8792,-3.8856,-3.8842,-3.8859,-3.9003,-3.9052,-3.9147,-3.9188,-3.9175,-3.9363,-3.9333,-3.9283,-3.9192,-3.9366,-3.9438,-3.9468,-3.9084,-3.9081,-3.9079,-3.9077,0,0,-3.8584,-3.8667,-3.8701,-3.8742,-3.8813,-3.8892,-3.9009,-3.9101,-3.9158,-3.9224,-3.9322,-3.9457,-3.9412,-3.9465,-3.9458,-3.9542,-3.9718,-3.9481,-3.9483,-3.9524,-3.9928,-3.9965,-3.9999,-3.9695,-3.97,-3.9705,-3.9923,0,-3.879,-3.8991,-3.8987,-3.9175,-3.9269,-3.9227,-3.9328,-3.9384,-3.9404,-3.9488,-3.951,-3.9607,-3.9539,-3.9571,-3.9652,-3.9679,-3.9799,-3.9663,-3.9788,-3.9792,-3.9772,-4.0037,-4.0076,-4.0279,-3.9951,-3.9956,-3.9959,0,-3.9056,-3.9131,-3.9328,-3.9387,-3.9427,-3.9518,-3.9604,-3.9685,-3.9749,-3.9757,-3.9818,-3.9798,-3.9918,-3.9825,-3.9992,-3.99,-3.9951,-3.9973,-3.9981,-3.9991,-3.9886,-4.0056,-4.0344,-4.0374,-4.0004,-4.0,-3.9997,0,-3.9228,-3.9378,-3.9516,-3.9552,-3.9625,-3.969,-3.9724,-3.9782,-3.9839,-3.9916,-3.9953,-4.0043,-4.0092,-4.0163,-4.0169,-4.01,-4.0339,-4.0245,-4.035,-4.0351,-4.0402,-4.0398,-4.0702,-4.0435,-4.0435,-4.0434,-4.0434,0,-3.9458,-3.9581,-3.9594,-3.9679,-3.9816,-3.9812,-3.9948,-3.9976,-4.0029,-4.012,-4.0089,-4.0176,-4.0179,-4.0268,-4.0274,-4.0413,-4.0435,-4.0447,-4.0447,-4.0449,-4.0448,-4.0482,-4.0468,-4.0442,-4.0441,-4.0439,-4.0438,0,-3.9673,-3.9686,-3.9834,-3.9891,-3.9909,-4.0008,-4.0057,-4.014,-4.0157,-4.0273,-4.03,-4.0328,-4.0432,-4.0446,-4.0567,-4.0571,-4.0738,-4.0724,-4.0716,-4.0714,-4.0819,-4.0809,-4.1155,-4.1201,-4.0904,-4.0907,-4.091,0,-3.9818,-3.9911,-3.9979,-4.0038,-4.0075,-4.0169,-4.0227,-4.0228,-4.029,-4.0372,-4.0445,-4.0545,-4.0625,-4.0794,-4.0827,-4.092,-4.0908,-4.1023,-4.0921,-4.0922,-4.091,-4.0904,-4.0914,-4.1042,-4.1045,-4.1048,-4.105,0,-4.0075,-4.0078,-4.0162,-4.0251,-4.0321,-4.0391,-4.0456,-4.0506,-4.0515,-4.0588,-4.0693,-4.0755,-4.088,-4.0981,-4.1074,-4.1111,-4.1084,-4.1082,-4.1111,-4.1114,-4.1106,-4.1113,-4.077,-4.1074,-4.1071,-4.1069,-4.1068,-4.1067,-4.026,-4.0341,-4.0402,-4.0498,-4.0548,-4.061,-4.0691,-4.0719,-4.0806,-4.0907,-4.0903,-4.102,-4.1084,-4.1206,-4.125,-4.1342,-4.1305,-4.1347,-4.1358,-4.1368,-4.1379,-4.1092,-4.1359,-4.1359,-4.1358,-4.1358,-4.1357,0,-4.0515,-4.0553,-4.0641,-4.0734,-4.0811,-4.0777,-4.0849,-4.0916,-4.1018,-4.108,-4.116,-4.1283,-4.1382,-4.1423,-4.1521,-4.1587,-4.1577,-4.1613,-4.1608,-4.1617,-4.1407,-4.1372,-4.1619,-4.1619,-4.1619,-4.1619,-4.1619,-4.1619,-4.0657,-4.0794,-4.0805,-4.0967,-4.1004,-4.1118,-4.1162,-4.122,-4.127,-4.1408,-4.149,-4.1516,-4.1571,-4.1672,-4.1762,-4.1772,-4.1809,-4.1851,-4.1856,-4.1658,-4.1632,-4.1606,-4.1573,-4.1859,-4.186,-4.2058,-4.206,-4.2061]},{"header":{"parameterUnit":"m.s-1","parameterCategory":1,"la1":30.2991,"la2":30.254,"lo1":-89.0895,"lo2":-89.0444,"dy":0.0017,"dx":0.0017,"nx":28,"ny":28,"refTime":"2026-02-14T09:00:00:Z","depth":0,"parameterNumber":3,"parameterNumberName":"V-component_of_WINDS"},"data":[0,0,0,0,0,0,0,0,0,0,0,0,0,0,0,0,0,0,0,0,0,0,0,0,0,0,0,0,0,0,0,0,0,0,0,0,0,0,0,0,0,0,0,0,0,0,0,0,0,0,0,0,0,0,0,0,0,0,0.3766,0.3766,0,0.3793,0.3793,0.3794,0.3811,0.3811,0.3811,0.3811,0.3838,0.3838,0.3839,0,0,0,0,0,0,0,0,0,0,0,0,0,0.3727,0.3728,0.3766,0.3766,0.3766,0.3793,0.3793,0.3794,0.3811,0.3811,0.3811,0.3811,0.3837,0.3838,0.3839,0,0,0,0,0,0,0,0,0,0,0,0,0,0.3748,0.3728,0.3765,0.3778,0.378,0.3793,0.3793,0.3794,0.3811,0.3811,0.3811,0.3811,0.3837,0.3838,0.3839,0.3841,0,0,0.3842,0.3842,0,0,0,0,0,0,0,0,0.3747,0.3749,0.3776,0.3777,0.3779,0.3799,0.3789,0.381,0.3811,0.3799,0.3811,0.3812,0.3824,0.3826,0.3831,0.3843,0.3844,0.3842,0.3842,0.3843,0.3843,0,0,0,0,0,0,0,0.3745,0.3748,0.3776,0.3776,0.3778,0.3782,0.3785,0.3793,0.381,0.38,0.3801,0.3804,0.3825,0.383,0.3832,0.3844,0.3842,0.3843,0.3843,0.3843,0.386,0.386,0,0,0,0,0,0,0.3742,0.3747,0.3775,0.3777,0.3763,0.3783,0.3786,0.3792,0.381,0.3813,0.3804,0.3805,0.3829,0.3831,0.3833,0.3838,0.3843,0.3844,0.3844,0.386,0.386,0.386,0,0,0,0,0,0,0.3741,0.3744,0.3774,0.3762,0.3767,0.3783,0.379,0.3793,0.3798,0.3814,0.3817,0.3806,0.3829,0.3832,0.384,0.3839,0.3844,0.3845,0.386,0.386,0.386,0.3847,0,0,0,0,0,0,0.374,0.3744,0.3745,0.3762,0.3767,0.3781,0.379,0.3793,0.3799,0.3801,0.3816,0.3819,0.3829,0.3838,0.384,0.384,0.3845,0.3861,0.386,0.386,0.3847,0.3846,0.3845,0,0,0,0,0,0.3738,0.374,0.3745,0.3748,0.3769,0.3781,0.3783,0.3796,0.3799,0.3801,0.3811,0.3819,0.3839,0.3839,0.3842,0.3842,0.3861,0.386,0.386,0.3848,0.3847,0.3845,0,0,0,0,0,0,0.3721,0.3742,0.3748,0.3755,0.3766,0.3784,0.3786,0.3794,0.3803,0.3804,0.3818,0.3821,0.3828,0.3836,0.3835,0.3845,0.3851,0.3851,0.384,0.3839,0.3838,0.3836,0.3846,0,0,0,0,0,0.3718,0.3726,0.3744,0.3748,0.3754,0.3769,0.3774,0.3783,0.3794,0.3799,0.381,0.382,0.3829,0.3835,0.3843,0.3849,0.3853,0.385,0.3849,0.3848,0.3848,0.3853,0.3852,0.3859,0.3859,0.3859,0,0,0.3712,0.3724,0.3728,0.3745,0.3755,0.3763,0.3772,0.378,0.3786,0.38,0.3808,0.3817,0.383,0.3837,0.384,0.3843,0.3847,0.3848,0.3847,0.3848,0.3852,0.3852,0.3851,0.3859,0.3859,0.3859,0,0,0.3704,0.3714,0.372,0.3729,0.3744,0.3754,0.3756,0.3772,0.3779,0.3788,0.3799,0.3806,0.382,0.383,0.3836,0.3834,0.3841,0.3836,0.383,0.3834,0.3834,0.3833,0.3833,0.3833,0.3836,0.3836,0.3836,0,0.3694,0.3707,0.3721,0.3729,0.3736,0.375,0.3756,0.3764,0.378,0.3785,0.3788,0.3808,0.3817,0.3827,0.3827,0.3831,0.3833,0.3834,0.3833,0.3833,0.3832,0.3832,0.3832,0.3835,0.3835,0.3836,0.3836,0,0.3695,0.3703,0.3706,0.3723,0.373,0.3737,0.3752,0.3758,0.3766,0.3776,0.3785,0.3797,0.3809,0.3812,0.382,0.3823,0.3825,0.383,0.3836,0.3831,0.3831,0.3831,0.3834,0.3835,0.3835,0.3835,0,0,0.3676,0.3702,0.3702,0.3711,0.3729,0.3735,0.3743,0.3756,0.3761,0.3772,0.3778,0.3791,0.3797,0.3804,0.3813,0.3816,0.3815,0.3822,0.3822,0.382,0.382,0.3816,0.3816,0.382,0.382,0.382,0.3819,0,0.3671,0.3686,0.37,0.3709,0.3718,0.3732,0.3738,0.375,0.376,0.3768,0.3779,0.3788,0.3794,0.3799,0.3803,0.3814,0.3815,0.3814,0.3826,0.3826,0.3823,0.3815,0.3811,0.3809,0.3819,0.3819,0.3819,0,0.3668,0.368,0.3691,0.3709,0.3713,0.3719,0.3732,0.374,0.3754,0.3761,0.377,0.3779,0.3788,0.3792,0.3804,0.3804,0.3809,0.3816,0.3816,0.3817,0.3822,0.3817,0.3809,0.3809,0.3819,0.3819,0.3819,0,0.3654,0.3673,0.3682,0.3688,0.371,0.3713,0.3722,0.3736,0.3743,0.3755,0.376,0.3772,0.3778,0.3787,0.38,0.3802,0.3811,0.3817,0.3817,0.3817,0.3818,0.3818,0.3811,0.3821,0.3821,0.3821,0.3821,0,0.3648,0.3654,0.3676,0.3681,0.3689,0.3704,0.3711,0.3721,0.3734,0.3742,0.3754,0.3761,0.3778,0.3786,0.3796,0.3805,0.3808,0.3814,0.3816,0.3813,0.3812,0.3816,0.3817,0.3821,0.3821,0.3821,0.3821,0,0.3633,0.3648,0.3659,0.3679,0.3684,0.3689,0.3706,0.3712,0.3723,0.3732,0.3735,0.3752,0.3764,0.3778,0.3793,0.38,0.3807,0.3811,0.3803,0.3805,0.3804,0.3804,0.38,0.3801,0.3811,0.381,0.381,0,0.3628,0.3633,0.3654,0.3661,0.367,0.368,0.3688,0.3704,0.3711,0.3728,0.3732,0.3744,0.3755,0.3772,0.3786,0.3798,0.3802,0.38,0.3804,0.3801,0.3803,0.3802,0.3803,0.3799,0.3799,0.3799,0.3798,0,0.3618,0.3625,0.3637,0.3651,0.366,0.3672,0.3684,0.3688,0.3707,0.3714,0.3727,0.3735,0.3752,0.3764,0.3778,0.3787,0.3796,0.3797,0.3798,0.3794,0.379,0.3793,0.3801,0.3797,0.3797,0.3797,0.3797,0.3798,0.3608,0.3614,0.363,0.3642,0.3653,0.3665,0.3672,0.3684,0.3695,0.371,0.3719,0.3731,0.3745,0.3765,0.3774,0.3783,0.3787,0.3788,0.3788,0.3788,0.3787,0.3788,0.3786,0.3786,0.3786,0.3786,0.3786,0,0.3599,0.361,0.3622,0.3639,0.3649,0.3657,0.3672,0.3679,0.369,0.3703,0.3714,0.3728,0.3741,0.3755,0.3769,0.3774,0.3778,0.3777,0.3776,0.3778,0.3783,0.3781,0.3773,0.3773,0.3773,0.3773,0.3773,0.3773,0.3595,0.3606,0.3615,0.3632,0.3643,0.3656,0.3663,0.3674,0.3685,0.37,0.3711,0.3721,0.3735,0.375,0.3762,0.3766,0.377,0.3767,0.3773,0.3777,0.3778,0.3779,0.3777,0.3768,0.3768,0.3767,0.3767,0.3767]}]]